iso_date,epoch_date,Year,Hour,Min,DOY,POS_DOY,Lat,Lon,BP,Ts,Ta,has_bp,has_ts,has_ta,BuoyID,Buoy_Type,Buoy_Owner,Logistics,Hemisphere
2016-09-16T10:24:57Z,1474021498,2016,10,25,260.434,257.59,85.2066,59.9228,1013.5,-4.3,-5.3,yes,yes,yes,300234064010010,Snow_Buoy,AWI-USIABP,unknown,North
2016-09-16T10:59:31Z,1474023571,2016,11,0,260.458,260.458,85.2274,59.7876,1014.2,-5.0,-5.5,yes,yes,yes,300234064010010,Snow_Buoy,AWI-USIABP,unknown,North
2016-09-16T12:00:00Z,1474027200,2016,12,0,260.5,260.5,85.2852,59.9038,1014.8,-5.5,-5.0,yes,yes,yes,300234064010010,Snow_Buoy,AWI-USIABP,unknown,North
2016-09-16T13:00:28Z,1474030829,2016,13,0,260.542,260.542,85.2816,59.8818,1014.8,-5.9,-6.3,yes,yes,yes,300234064010010,Snow_Buoy,AWI-USIABP,unknown,North
2016-09-16T13:59:31Z,1474034371,2016,14,0,260.583,260.583,85.2792,59.8656,1015.2,-6.4,-6.4,yes,yes,yes,300234064010010,Snow_Buoy,AWI-USIABP,unknown,North
2016-09-16T15:00:00Z,1474038000,2016,15,0,260.625,260.625,85.2786,59.852,1015.8,-6.6,-6.5,yes,yes,yes,300234064010010,Snow_Buoy,AWI-USIABP,unknown,North
2016-09-16T16:00:28Z,1474041629,2016,16,0,260.667,260.667,85.2796,59.8534,1016.4,-6.5,-6.5,yes,yes,yes,300234064010010,Snow_Buoy,AWI-USIABP,unknown,North
2016-09-16T16:59:31Z,1474045171,2016,17,0,260.708,260.708,85.2818,59.8718,1016.3,-6.5,-6.6,yes,yes,yes,300234064010010,Snow_Buoy,AWI-USIABP,unknown,North
2016-09-16T18:00:00Z,1474048800,2016,18,0,260.75,260.75,85.2836,59.9162,1016.4,-6.7,-6.7,yes,yes,yes,300234064010010,Snow_Buoy,AWI-USIABP,unknown,North
2016-09-16T19:00:28Z,1474052429,2016,19,0,260.792,260.792,85.285,59.9722,1016.3,-6.8,-6.8,yes,yes,yes,300234064010010,Snow_Buoy,AWI-USIABP,unknown,North
2016-09-16T19:59:31Z,1474055971,2016,20,0,260.833,260.833,85.2866,60.0206,1016.4,-7.0,-7.4,yes,yes,yes,300234064010010,Snow_Buoy,AWI-USIABP,unknown,North
2016-09-16T21:00:00Z,1474059600,2016,21,0,260.875,260.875,85.2868,60.0684,1016.6,-7.3,-7.2,yes,yes,yes,300234064010010,Snow_Buoy,AWI-USIABP,unknown,North
2016-09-16T22:00:28Z,1474063229,2016,22,0,260.917,260.917,85.2864,60.1064,1016.9,-7.3,-7.1,yes,yes,yes,300234064010010,Snow_Buoy,AWI-USIABP,unknown,North
2016-09-16T22:59:31Z,1474066771,2016,23,0,260.958,260.958,85.2848,60.1466,1016.2,-7.3,-7.5,yes,yes,yes,300234064010010,Snow_Buoy,AWI-USIABP,unknown,North
2016-09-17T00:00:00Z,1474070400,2016,0,0,261.0,261.0,85.331,59.959,1016.6,-7.3,-7.1,yes,yes,yes,300234064010010,Snow_Buoy,AWI-USIABP,unknown,North
2016-09-17T01:00:28Z,1474074029,2016,1,0,261.042,261.042,85.4004,59.843,1016.1,-7.3,-7.3,yes,yes,yes,300234064010010,Snow_Buoy,AWI-USIABP,unknown,North
2016-09-17T01:59:31Z,1474077571,2016,2,0,261.083,261.083,85.4688,59.5928,1015.9,-7.0,-6.9,yes,yes,yes,300234064010010,Snow_Buoy,AWI-USIABP,unknown,North
2016-09-17T03:00:00Z,1474081200,2016,3,0,261.125,261.125,85.544,59.5358,1015.7,-6.7,-6.4,yes,yes,yes,300234064010010,Snow_Buoy,AWI-USIABP,unknown,North
2016-09-17T04:00:28Z,1474084829,2016,4,0,261.167,261.167,85.6222,59.4148,1015.2,-6.2,-5.7,yes,yes,yes,300234064010010,Snow_Buoy,AWI-USIABP,unknown,North
2016-09-17T04:59:31Z,1474088371,2016,5,0,261.208,261.208,85.7082,59.1284,1014.8,-5.5,-5.0,yes,yes,yes,300234064010010,Snow_Buoy,AWI-USIABP,unknown,North
2016-09-17T06:00:00Z,1474092000,2016,6,0,261.25,261.25,85.8034,58.9258,1014.3,-4.8,-4.4,yes,yes,yes,300234064010010,Snow_Buoy,AWI-USIABP,unknown,North
2016-09-17T07:00:28Z,1474095629,2016,7,0,261.292,261.292,85.876,59.0722,1013.7,-4.5,-4.0,yes,yes,yes,300234064010010,Snow_Buoy,AWI-USIABP,unknown,North
2016-09-17T07:59:31Z,1474099171,2016,8,0,261.333,261.333,85.9808,58.6506,1013.2,-3.8,-3.2,yes,yes,yes,300234064010010,Snow_Buoy,AWI-USIABP,unknown,North
2016-09-17T09:01:26Z,1474102886,2016,9,1,261.376,261.376,86.0476,58.2408,1012.6,-3.1,-2.6,yes,yes,yes,300234064010010,Snow_Buoy,AWI-USIABP,unknown,North
2016-09-17T10:00:28Z,1474106429,2016,10,1,261.417,261.417,86.1238,58.2106,1011.7,-2.7,-2.4,yes,yes,yes,300234064010010,Snow_Buoy,AWI-USIABP,unknown,North
2016-09-17T11:08:09Z,1474110490,2016,11,8,261.464,258.62,86.1946,57.9018,1011.3,-2.4,-2.3,yes,yes,yes,300234064010010,Snow_Buoy,AWI-USIABP,unknown,North
2016-09-17T12:02:52Z,1474113773,2016,12,3,261.502,258.658,86.2992,57.9826,1010.9,-2.1,-1.9,yes,yes,yes,300234064010010,Snow_Buoy,AWI-USIABP,unknown,North
2016-09-17T13:00:28Z,1474117229,2016,13,0,261.542,261.542,86.3204,57.7948,1010.6,-1.9,-1.7,yes,yes,yes,300234064010010,Snow_Buoy,AWI-USIABP,unknown,North
2016-09-17T14:00:57Z,1474120858,2016,14,1,261.584,261.584,86.3234,57.8568,1010.1,-1.5,-1.3,yes,yes,yes,300234064010010,Snow_Buoy,AWI-USIABP,unknown,North
2016-09-17T15:00:00Z,1474124400,2016,15,0,261.625,261.625,86.3386,57.8544,1009.7,-1.3,-1.1,yes,yes,yes,300234064010010,Snow_Buoy,AWI-USIABP,unknown,North
2016-09-17T16:00:28Z,1474128029,2016,16,0,261.667,261.667,86.349,57.863,1009.2,-1.1,-1.0,yes,yes,yes,300234064010010,Snow_Buoy,AWI-USIABP,unknown,North
2016-09-17T17:00:57Z,1474131658,2016,17,1,261.709,261.709,86.3562,57.917,1008.6,-0.9,-0.9,yes,yes,yes,300234064010010,Snow_Buoy,AWI-USIABP,unknown,North
2016-09-17T18:00:00Z,1474135200,2016,18,0,261.75,261.75,86.3706,57.8966,1007.7,-0.8,-0.8,yes,yes,yes,300234064010010,Snow_Buoy,AWI-USIABP,unknown,North
2016-09-17T19:00:28Z,1474138829,2016,19,1,261.792,261.792,86.3806,57.973,1006.7,-0.7,-0.8,yes,yes,yes,300234064010010,Snow_Buoy,AWI-USIABP,unknown,North
2016-09-17T19:59:31Z,1474142371,2016,20,0,261.833,261.833,86.4608,57.6298,1006.1,-0.6,-0.6,yes,yes,yes,300234064010010,Snow_Buoy,AWI-USIABP,unknown,North
2016-09-17T21:01:26Z,1474146086,2016,21,1,261.876,261.876,86.516,59.2696,1005.2,-0.5,-0.6,yes,yes,yes,300234064010010,Snow_Buoy,AWI-USIABP,unknown,North
2016-09-17T22:00:28Z,1474149629,2016,22,1,261.917,261.917,86.585,59.9498,1004.3,-0.4,-0.4,yes,yes,yes,300234064010010,Snow_Buoy,AWI-USIABP,unknown,North
2016-09-17T22:59:31Z,1474153171,2016,23,0,261.958,261.958,86.6796,60.445,1003.2,-0.3,-0.3,yes,yes,yes,300234064010010,Snow_Buoy,AWI-USIABP,unknown,North
2016-09-18T00:00:00Z,1474156800,2016,0,0,262.0,262.0,86.713,61.0012,1001.7,0.0,0.0,yes,yes,yes,300234064010010,Snow_Buoy,AWI-USIABP,unknown,North
2016-09-18T01:00:28Z,1474160429,2016,1,1,262.042,262.042,86.72,61.0672,1000.5,0.3,0.4,yes,yes,yes,300234064010010,Snow_Buoy,AWI-USIABP,unknown,North
2016-09-18T02:00:57Z,1474164058,2016,2,1,262.084,262.084,86.7106,61.3392,999.5,0.7,0.8,yes,yes,yes,300234064010010,Snow_Buoy,AWI-USIABP,unknown,North
2016-09-18T03:00:00Z,1474167600,2016,3,0,262.125,262.125,86.7176,61.4158,998.3,1.0,1.0,yes,yes,yes,300234064010010,Snow_Buoy,AWI-USIABP,unknown,North
2016-09-18T04:00:28Z,1474171229,2016,4,1,262.167,262.167,86.7248,61.513,997.5,1.0,1.0,yes,yes,yes,300234064010010,Snow_Buoy,AWI-USIABP,unknown,North
2016-09-18T04:59:31Z,1474174771,2016,5,0,262.208,262.208,86.7316,61.6406,997.1,1.1,1.0,yes,yes,yes,300234064010010,Snow_Buoy,AWI-USIABP,unknown,North
2016-09-18T06:00:00Z,1474178400,2016,6,0,262.25,262.25,86.7376,61.7878,996.9,1.2,1.4,yes,yes,yes,300234064010010,Snow_Buoy,AWI-USIABP,unknown,North
2016-09-18T07:00:28Z,1474182029,2016,7,0,262.292,262.292,86.743,61.9594,996.6,1.3,1.4,yes,yes,yes,300234064010010,Snow_Buoy,AWI-USIABP,unknown,North
2016-09-18T07:59:31Z,1474185571,2016,8,0,262.333,262.333,86.7126,61.6878,996.6,1.3,1.5,yes,yes,yes,300234064010010,Snow_Buoy,AWI-USIABP,unknown,North
2016-09-18T09:00:00Z,1474189200,2016,9,0,262.375,262.375,86.7022,61.1564,996.6,1.4,1.4,yes,yes,yes,300234064010010,Snow_Buoy,AWI-USIABP,unknown,North
2016-09-18T10:00:28Z,1474192829,2016,10,0,262.417,262.417,86.7064,61.2868,996.5,1.5,1.5,yes,yes,yes,300234064010010,Snow_Buoy,AWI-USIABP,unknown,North
2016-09-18T10:59:31Z,1474196371,2016,11,0,262.458,262.458,86.7108,61.3872,996.5,1.5,1.4,yes,yes,yes,300234064010010,Snow_Buoy,AWI-USIABP,unknown,North
2016-09-18T12:00:00Z,1474200000,2016,12,0,262.5,262.5,86.7152,61.4858,996.4,1.6,1.4,yes,yes,yes,300234064010010,Snow_Buoy,AWI-USIABP,unknown,North
2016-09-18T13:00:28Z,1474203629,2016,13,0,262.542,262.542,86.721,61.6402,996.3,1.4,0.9,yes,yes,yes,300234064010010,Snow_Buoy,AWI-USIABP,unknown,North
2016-09-18T13:59:31Z,1474207171,2016,14,0,262.583,262.583,86.7302,61.6214,996.9,1.2,0.8,yes,yes,yes,300234064010010,Snow_Buoy,AWI-USIABP,unknown,North
2016-09-18T15:00:00Z,1474210800,2016,15,0,262.625,262.625,86.7354,61.4628,997.1,1.1,0.9,yes,yes,yes,300234064010010,Snow_Buoy,AWI-USIABP,unknown,North
2016-09-18T16:00:28Z,1474214429,2016,16,1,262.667,262.667,86.7078,61.3444,997.3,1.3,1.1,yes,yes,yes,300234064010010,Snow_Buoy,AWI-USIABP,unknown,North
2016-09-18T16:59:31Z,1474217971,2016,17,0,262.708,262.708,86.7088,61.4498,997.4,1.4,1.2,yes,yes,yes,300234064010010,Snow_Buoy,AWI-USIABP,unknown,North
2016-09-18T18:00:00Z,1474221600,2016,18,0,262.75,262.75,86.7104,61.5494,997.2,1.4,1.2,yes,yes,yes,300234064010010,Snow_Buoy,AWI-USIABP,unknown,North
2016-09-18T19:00:28Z,1474225229,2016,19,0,262.792,262.792,86.7048,61.3942,996.9,1.4,1.3,yes,yes,yes,300234064010010,Snow_Buoy,AWI-USIABP,unknown,North
2016-09-18T19:59:31Z,1474228771,2016,20,0,262.833,262.833,86.711,61.3468,996.5,1.4,1.3,yes,yes,yes,300234064010010,Snow_Buoy,AWI-USIABP,unknown,North
2016-09-18T21:00:00Z,1474232400,2016,21,0,262.875,262.875,86.7082,61.3198,996.1,1.6,1.5,yes,yes,yes,300234064010010,Snow_Buoy,AWI-USIABP,unknown,North
2016-09-18T22:00:28Z,1474236029,2016,22,0,262.917,262.917,86.7138,61.33,995.3,1.6,1.4,yes,yes,yes,300234064010010,Snow_Buoy,AWI-USIABP,unknown,North
2016-09-18T22:59:31Z,1474239571,2016,23,0,262.958,262.958,86.7958,61.5712,994.5,1.5,1.2,yes,yes,yes,300234064010010,Snow_Buoy,AWI-USIABP,unknown,North
2016-09-19T00:01:26Z,1474243286,2016,0,1,263.001,263.001,86.8618,61.2716,993.4,1.5,1.2,yes,yes,yes,300234064010010,Snow_Buoy,AWI-USIABP,unknown,North
2016-09-19T01:00:28Z,1474246829,2016,1,0,263.042,263.042,86.8472,60.967,992.3,1.4,1.2,yes,yes,yes,300234064010010,Snow_Buoy,AWI-USIABP,unknown,North
2016-09-19T01:59:31Z,1474250371,2016,2,0,263.083,263.083,86.7626,61.1594,991.6,1.4,1.3,yes,yes,yes,300234064010010,Snow_Buoy,AWI-USIABP,unknown,North
2016-09-19T03:00:00Z,1474254000,2016,3,0,263.125,263.125,86.7992,61.2794,990.7,1.4,1.1,yes,yes,yes,300234064010010,Snow_Buoy,AWI-USIABP,unknown,North
2016-09-19T04:00:28Z,1474257629,2016,4,1,263.167,263.167,86.8138,61.642,989.7,1.3,1.0,yes,yes,yes,300234064010010,Snow_Buoy,AWI-USIABP,unknown,North
2016-09-19T04:59:31Z,1474261171,2016,5,0,263.208,263.208,86.8182,61.6976,988.8,1.3,1.1,yes,yes,yes,300234064010010,Snow_Buoy,AWI-USIABP,unknown,North
2016-09-19T06:00:00Z,1474264800,2016,6,0,263.25,263.25,86.8224,61.756,988.1,1.3,1.0,yes,yes,yes,300234064010010,Snow_Buoy,AWI-USIABP,unknown,North
2016-09-19T07:00:28Z,1474268429,2016,7,0,263.292,263.292,86.8258,61.809,987.2,1.3,1.1,yes,yes,yes,300234064010010,Snow_Buoy,AWI-USIABP,unknown,North
2016-09-19T08:00:57Z,1474272058,2016,8,1,263.334,263.334,86.8282,61.8496,986.6,1.3,1.1,yes,yes,yes,300234064010010,Snow_Buoy,AWI-USIABP,unknown,North
2016-09-19T09:00:00Z,1474275600,2016,9,0,263.375,263.375,86.8292,61.8742,986.0,1.4,1.0,yes,yes,yes,300234064010010,Snow_Buoy,AWI-USIABP,unknown,North
2016-09-19T10:00:28Z,1474279229,2016,10,0,263.417,263.417,86.83,61.885,985.5,1.4,1.0,yes,yes,yes,300234064010010,Snow_Buoy,AWI-USIABP,unknown,North
2016-09-19T11:00:57Z,1474282858,2016,11,1,263.459,263.459,86.8292,61.8752,985.1,1.3,0.9,yes,yes,yes,300234064010010,Snow_Buoy,AWI-USIABP,unknown,North
2016-09-19T12:00:00Z,1474286400,2016,12,0,263.5,263.5,86.8282,61.845,984.8,1.3,0.9,yes,yes,yes,300234064010010,Snow_Buoy,AWI-USIABP,unknown,North
2016-09-19T13:00:28Z,1474290029,2016,13,1,263.542,263.542,86.8276,62.0836,984.3,1.3,1.0,yes,yes,yes,300234064010010,Snow_Buoy,AWI-USIABP,unknown,North
2016-09-19T14:00:57Z,1474293658,2016,14,1,263.584,263.584,86.8246,62.0224,983.9,1.3,0.8,yes,yes,yes,300234064010010,Snow_Buoy,AWI-USIABP,unknown,North
2016-09-19T15:00:00Z,1474297200,2016,15,0,263.625,263.625,86.8228,61.8394,983.7,1.1,0.0,yes,yes,yes,300234064010010,Snow_Buoy,AWI-USIABP,unknown,North
2016-09-19T16:00:28Z,1474300829,2016,16,1,263.667,263.667,86.8142,61.8632,983.6,0.4,-0.9,yes,yes,yes,300234064010010,Snow_Buoy,AWI-USIABP,unknown,North
2016-09-19T16:59:31Z,1474304371,2016,17,0,263.708,263.708,86.8036,61.9042,984.4,-0.5,-1.6,yes,yes,yes,300234064010010,Snow_Buoy,AWI-USIABP,unknown,North
2016-09-19T18:01:26Z,1474308086,2016,18,1,263.751,263.751,86.793,61.721,985.3,-1.1,-2.1,yes,yes,yes,300234064010010,Snow_Buoy,AWI-USIABP,unknown,North
2016-09-19T19:00:28Z,1474311629,2016,19,1,263.792,263.792,86.7122,61.3426,986.4,-1.8,-2.9,yes,yes,yes,300234064010010,Snow_Buoy,AWI-USIABP,unknown,North
2016-09-19T19:59:31Z,1474315171,2016,20,0,263.833,263.833,86.7008,61.2716,987.9,-2.1,-2.7,yes,yes,yes,300234064010010,Snow_Buoy,AWI-USIABP,unknown,North
2016-09-19T21:01:26Z,1474318886,2016,21,1,263.876,263.876,86.712,61.3426,988.9,-2.2,-2.6,yes,yes,yes,300234064010010,Snow_Buoy,AWI-USIABP,unknown,North
2016-09-19T22:00:28Z,1474322429,2016,22,0,263.917,263.917,86.7112,61.3278,990.3,-1.9,-1.8,yes,yes,yes,300234064010010,Snow_Buoy,AWI-USIABP,unknown,North
2016-09-19T22:59:31Z,1474325971,2016,23,0,263.958,263.958,86.7104,61.3018,991.2,-1.8,-2.1,yes,yes,yes,300234064010010,Snow_Buoy,AWI-USIABP,unknown,North
2016-09-20T00:01:26Z,1474329686,2016,0,1,264.001,264.001,86.7076,61.3078,991.9,-2.1,-2.4,yes,yes,yes,300234064010010,Snow_Buoy,AWI-USIABP,unknown,North
2016-09-20T01:00:28Z,1474333229,2016,1,0,264.042,264.042,86.6926,60.7734,992.8,-2.3,-2.7,yes,yes,yes,300234064010010,Snow_Buoy,AWI-USIABP,unknown,North
2016-09-20T01:59:31Z,1474336771,2016,2,0,264.083,264.083,86.6904,60.6438,993.9,-2.4,-2.8,yes,yes,yes,300234064010010,Snow_Buoy,AWI-USIABP,unknown,North
2016-09-20T03:00:00Z,1474340400,2016,3,0,264.125,264.125,86.6866,60.5212,995.1,-2.4,-2.8,yes,yes,yes,300234064010010,Snow_Buoy,AWI-USIABP,unknown,North
2016-09-20T04:00:28Z,1474344029,2016,4,1,264.167,264.167,86.6798,60.4376,996.0,-2.6,-2.8,yes,yes,yes,300234064010010,Snow_Buoy,AWI-USIABP,unknown,North
2016-09-20T04:59:31Z,1474347571,2016,5,0,264.208,264.208,86.6704,60.4028,997.0,-2.5,-3.0,yes,yes,yes,300234064010010,Snow_Buoy,AWI-USIABP,unknown,North
2016-09-20T06:00:00Z,1474351200,2016,6,0,264.25,264.25,86.6636,60.4118,997.1,-3.1,-4.2,yes,yes,yes,300234064010010,Snow_Buoy,AWI-USIABP,unknown,North
2016-09-20T07:00:28Z,1474354829,2016,7,0,264.292,264.292,86.7422,61.2468,997.9,-3.6,-4.3,yes,yes,yes,300234064010010,Snow_Buoy,AWI-USIABP,unknown,North
2016-09-20T08:00:57Z,1474358458,2016,8,1,264.334,264.334,86.7368,61.1672,999.1,-3.7,-4.2,yes,yes,yes,300234064010010,Snow_Buoy,AWI-USIABP,unknown,North
2016-09-20T09:00:00Z,1474362000,2016,9,0,264.375,264.375,86.7284,61.1652,999.9,-3.8,-4.3,yes,yes,yes,300234064010010,Snow_Buoy,AWI-USIABP,unknown,North
2016-09-20T10:00:28Z,1474365629,2016,10,0,264.417,264.417,86.7202,61.159,1000.7,-3.9,-4.2,yes,yes,yes,300234064010010,Snow_Buoy,AWI-USIABP,unknown,North
2016-09-20T10:59:31Z,1474369171,2016,11,0,264.458,264.458,86.7122,61.148,1001.7,-3.8,-3.9,yes,yes,yes,300234064010010,Snow_Buoy,AWI-USIABP,unknown,North
2016-09-20T12:01:26Z,1474372886,2016,12,1,264.501,264.501,86.7046,61.1324,1001.8,-3.7,-4.4,yes,yes,yes,300234064010010,Snow_Buoy,AWI-USIABP,unknown,North
2016-09-20T13:00:28Z,1474376429,2016,13,0,264.542,264.542,86.6976,61.0932,1002.7,-4.2,-4.4,yes,yes,yes,300234064010010,Snow_Buoy,AWI-USIABP,unknown,North
2016-09-20T13:59:31Z,1474379971,2016,14,0,264.583,264.583,86.6904,61.075,1003.6,-4.1,-4.4,yes,yes,yes,300234064010010,Snow_Buoy,AWI-USIABP,unknown,North
2016-09-20T15:00:00Z,1474383600,2016,15,0,264.625,264.625,86.6828,61.0602,1004.2,-4.0,-4.3,yes,yes,yes,300234064010010,Snow_Buoy,AWI-USIABP,unknown,North
2016-09-20T16:00:28Z,1474387229,2016,16,1,264.667,264.667,86.6748,61.063,1004.6,-4.1,-4.6,yes,yes,yes,300234064010010,Snow_Buoy,AWI-USIABP,unknown,North
2016-09-20T17:00:57Z,1474390858,2016,17,1,264.709,264.709,86.7082,60.8754,1005.1,-4.4,-4.9,yes,yes,yes,300234064010010,Snow_Buoy,AWI-USIABP,unknown,North
2016-09-20T18:01:26Z,1474394486,2016,18,1,264.751,264.751,86.7904,60.2976,1006.1,-4.9,-5.6,yes,yes,yes,300234064010010,Snow_Buoy,AWI-USIABP,unknown,North
2016-09-20T19:00:28Z,1474398029,2016,19,1,264.792,264.792,86.9032,60.1392,1007.4,-5.0,-5.3,yes,yes,yes,300234064010010,Snow_Buoy,AWI-USIABP,unknown,North
2016-09-20T20:00:57Z,1474401658,2016,20,1,264.834,264.834,86.984,59.5454,1008.5,-5.1,-5.1,yes,yes,yes,300234064010010,Snow_Buoy,AWI-USIABP,unknown,North
2016-09-20T21:01:26Z,1474405286,2016,21,1,264.876,264.876,86.999,58.1746,1009.7,-4.3,-4.1,yes,yes,yes,300234064010010,Snow_Buoy,AWI-USIABP,unknown,North
2016-09-20T22:00:28Z,1474408829,2016,22,1,264.917,264.917,86.9956,58.1622,1010.1,-4.0,-3.9,yes,yes,yes,300234064010010,Snow_Buoy,AWI-USIABP,unknown,North
2016-09-20T23:00:57Z,1474412458,2016,23,1,264.959,264.959,86.9926,58.1568,1010.6,-3.8,-3.6,yes,yes,yes,300234064010010,Snow_Buoy,AWI-USIABP,unknown,North
2016-09-21T00:01:26Z,1474416086,2016,0,1,265.001,265.001,86.9892,58.1746,1011.1,-3.6,-3.4,yes,yes,yes,300234064010010,Snow_Buoy,AWI-USIABP,unknown,North
2016-09-21T01:00:28Z,1474419629,2016,1,1,265.042,265.042,86.9868,58.1918,1011.4,-3.5,-3.3,yes,yes,yes,300234064010010,Snow_Buoy,AWI-USIABP,unknown,North
2016-09-21T02:02:24Z,1474423344,2016,2,2,265.085,265.085,86.9844,58.215,1011.6,-3.4,-3.3,yes,yes,yes,300234064010010,Snow_Buoy,AWI-USIABP,unknown,North
2016-09-21T03:01:26Z,1474426886,2016,3,1,265.126,265.126,86.9816,58.2414,1011.9,-3.4,-3.3,yes,yes,yes,300234064010010,Snow_Buoy,AWI-USIABP,unknown,North
2016-09-21T04:01:55Z,1474430515,2016,4,2,265.168,265.168,86.9796,58.262,1012.1,-3.3,-3.2,yes,yes,yes,300234064010010,Snow_Buoy,AWI-USIABP,unknown,North
2016-09-21T05:00:57Z,1474434058,2016,5,1,265.209,265.209,87.0164,58.2436,1012.4,-3.1,-2.9,yes,yes,yes,300234064010010,Snow_Buoy,AWI-USIABP,unknown,North
2016-09-21T06:01:26Z,1474437686,2016,6,1,265.251,265.251,87.0136,58.2774,1012.6,-3.0,-3.1,yes,yes,yes,300234064010010,Snow_Buoy,AWI-USIABP,unknown,North
2016-09-21T07:00:28Z,1474441229,2016,7,1,265.292,265.292,87.014,58.3046,1012.7,-3.0,-3.1,yes,yes,yes,300234064010010,Snow_Buoy,AWI-USIABP,unknown,North
2016-09-21T08:00:57Z,1474444858,2016,8,1,265.334,265.334,87.012,58.3306,1012.4,-3.0,-3.4,yes,yes,yes,300234064010010,Snow_Buoy,AWI-USIABP,unknown,North
2016-09-21T09:01:26Z,1474448486,2016,9,1,265.376,265.376,87.0018,57.9224,1012.8,-3.4,-3.3,yes,yes,yes,300234064010010,Snow_Buoy,AWI-USIABP,unknown,North
2016-09-21T10:00:28Z,1474452029,2016,10,1,265.417,265.417,86.9922,57.7186,1012.9,-3.1,-3.2,yes,yes,yes,300234064010010,Snow_Buoy,AWI-USIABP,unknown,North
2016-09-21T11:00:57Z,1474455658,2016,11,1,265.459,265.459,86.9932,57.7906,1012.6,-2.8,-2.9,yes,yes,yes,300234064010010,Snow_Buoy,AWI-USIABP,unknown,North
2016-09-21T12:01:26Z,1474459286,2016,12,1,265.501,265.501,86.9938,57.8748,1012.2,-2.7,-2.7,yes,yes,yes,300234064010010,Snow_Buoy,AWI-USIABP,unknown,North
2016-09-21T13:00:28Z,1474462829,2016,13,1,265.542,265.542,86.994,57.9602,1011.8,-2.5,-2.6,yes,yes,yes,300234064010010,Snow_Buoy,AWI-USIABP,unknown,North
2016-09-21T14:00:57Z,1474466458,2016,14,1,265.584,265.584,86.9942,58.0474,1011.1,-2.5,-2.6,yes,yes,yes,300234064010010,Snow_Buoy,AWI-USIABP,unknown,North
2016-09-21T15:01:26Z,1474470086,2016,15,1,265.626,265.626,86.9932,58.1298,1010.6,-2.4,-2.6,yes,yes,yes,300234064010010,Snow_Buoy,AWI-USIABP,unknown,North
2016-09-21T16:00:28Z,1474473629,2016,16,1,265.667,265.667,86.992,58.2062,1010.4,-2.4,-2.5,yes,yes,yes,300234064010010,Snow_Buoy,AWI-USIABP,unknown,North
2016-09-21T17:00:57Z,1474477258,2016,17,1,265.709,265.709,86.99,58.2702,1009.7,-2.5,-2.9,yes,yes,yes,300234064010010,Snow_Buoy,AWI-USIABP,unknown,North
2016-09-21T18:01:26Z,1474480886,2016,18,1,265.751,265.751,86.9876,58.3082,1009.5,-2.7,-3.0,yes,yes,yes,300234064010010,Snow_Buoy,AWI-USIABP,unknown,North
2016-09-21T19:00:28Z,1474484429,2016,19,1,265.792,265.792,86.985,58.3264,1009.2,-2.8,-3.1,yes,yes,yes,300234064010010,Snow_Buoy,AWI-USIABP,unknown,North
2016-09-21T20:02:24Z,1474488144,2016,20,2,265.835,265.835,86.9828,58.3244,1009.0,-3.0,-3.3,yes,yes,yes,300234064010010,Snow_Buoy,AWI-USIABP,unknown,North
2016-09-21T21:01:26Z,1474491686,2016,21,2,265.876,265.876,86.9816,58.3144,1008.7,-3.0,-3.3,yes,yes,yes,300234064010010,Snow_Buoy,AWI-USIABP,unknown,North
2016-09-21T22:01:55Z,1474495315,2016,22,2,265.918,265.918,86.9812,58.3022,1008.6,-3.0,-3.2,yes,yes,yes,300234064010010,Snow_Buoy,AWI-USIABP,unknown,North
2016-09-21T23:00:57Z,1474498858,2016,23,1,265.959,265.959,86.9818,58.296,1008.3,-2.9,-3.0,yes,yes,yes,300234064010010,Snow_Buoy,AWI-USIABP,unknown,North
2016-09-22T00:01:26Z,1474502486,2016,0,1,266.001,266.001,86.9102,58.229,1007.9,-2.7,-2.8,yes,yes,yes,300234064010010,Snow_Buoy,AWI-USIABP,unknown,North
2016-09-22T01:00:28Z,1474506029,2016,1,1,266.042,266.042,86.868,58.0198,1007.2,-2.8,-3.3,yes,yes,yes,300234064010010,Snow_Buoy,AWI-USIABP,unknown,North
2016-09-22T02:00:57Z,1474509658,2016,2,1,266.084,266.084,86.8686,58.0526,1006.7,-2.9,-3.2,yes,yes,yes,300234064010010,Snow_Buoy,AWI-USIABP,unknown,North
2016-09-22T03:01:26Z,1474513286,2016,3,1,266.126,266.126,86.8642,58.4034,1005.9,-3.1,-3.9,yes,yes,yes,300234064010010,Snow_Buoy,AWI-USIABP,unknown,North
2016-09-22T04:00:28Z,1474516829,2016,4,1,266.167,266.167,86.866,58.4834,1005.5,-3.5,-4.1,yes,yes,yes,300234064010010,Snow_Buoy,AWI-USIABP,unknown,North
2016-09-22T05:00:57Z,1474520458,2016,5,1,266.209,266.209,86.8674,58.594,1005.4,-3.7,-4.2,yes,yes,yes,300234064010010,Snow_Buoy,AWI-USIABP,unknown,North
2016-09-22T06:01:26Z,1474524086,2016,6,1,266.251,266.251,86.8636,58.8078,1005.1,-3.8,-4.7,yes,yes,yes,300234064010010,Snow_Buoy,AWI-USIABP,unknown,North
2016-09-22T07:00:28Z,1474527629,2016,7,1,266.292,266.292,86.8666,60.7668,1004.8,-4.2,-5.0,yes,yes,yes,300234064010010,Snow_Buoy,AWI-USIABP,unknown,North
2016-09-22T08:00:57Z,1474531258,2016,8,1,266.334,266.334,86.8654,61.2708,1004.5,-4.7,-5.5,yes,yes,yes,300234064010010,Snow_Buoy,AWI-USIABP,unknown,North
2016-09-22T09:01:26Z,1474534886,2016,9,1,266.376,266.376,86.865,61.4108,1004.2,-4.8,-5.5,yes,yes,yes,300234064010010,Snow_Buoy,AWI-USIABP,unknown,North
2016-09-22T10:00:28Z,1474538429,2016,10,1,266.417,266.417,86.8618,61.5702,1003.7,-5.2,-6.2,yes,yes,yes,300234064010010,Snow_Buoy,AWI-USIABP,unknown,North
2016-09-22T11:00:57Z,1474542058,2016,11,1,266.459,266.459,86.8628,61.6786,1003.9,-5.4,-5.9,yes,yes,yes,300234064010010,Snow_Buoy,AWI-USIABP,unknown,North
2016-09-22T12:01:26Z,1474545686,2016,12,1,266.501,266.501,86.865,61.9986,1003.8,-5.1,-5.2,yes,yes,yes,300234064010010,Snow_Buoy,AWI-USIABP,unknown,North
2016-09-22T13:00:28Z,1474549229,2016,13,1,266.542,266.542,86.8584,62.098,1003.5,-4.8,-4.8,yes,yes,yes,300234064010010,Snow_Buoy,AWI-USIABP,unknown,North
2016-09-22T14:00:57Z,1474552858,2016,14,1,266.584,266.584,86.8514,62.0202,1003.4,-4.5,-4.4,yes,yes,yes,300234064010010,Snow_Buoy,AWI-USIABP,unknown,North
2016-09-22T15:01:26Z,1474556486,2016,15,1,266.626,266.626,86.8092,61.8184,1002.5,-4.5,-4.9,yes,yes,yes,300234064010010,Snow_Buoy,AWI-USIABP,unknown,North
2016-09-22T16:00:28Z,1474560029,2016,16,1,266.667,266.667,86.726,61.489,1002.8,-4.8,-5.5,yes,yes,yes,300234064010010,Snow_Buoy,AWI-USIABP,unknown,North
2016-09-22T17:00:57Z,1474563658,2016,17,1,266.709,266.709,86.7194,61.3472,1003.4,-5.2,-5.7,yes,yes,yes,300234064010010,Snow_Buoy,AWI-USIABP,unknown,North
2016-09-22T18:01:26Z,1474567286,2016,18,1,266.751,266.751,86.732,61.6108,1003.6,-5.5,-6.0,yes,yes,yes,300234064010010,Snow_Buoy,AWI-USIABP,unknown,North
2016-09-22T19:00:28Z,1474570829,2016,19,1,266.792,266.792,86.7306,61.613,1003.9,-5.6,-6.1,yes,yes,yes,300234064010010,Snow_Buoy,AWI-USIABP,unknown,North
2016-09-22T20:02:24Z,1474574544,2016,20,2,266.835,266.835,86.73,61.6048,1004.4,-5.8,-5.9,yes,yes,yes,300234064010010,Snow_Buoy,AWI-USIABP,unknown,North
2016-09-22T21:01:26Z,1474578086,2016,21,1,266.876,266.876,86.7378,61.8274,1004.3,-5.7,-6.4,yes,yes,yes,300234064010010,Snow_Buoy,AWI-USIABP,unknown,North